Location: Caser�o Palau Borrell
(42.1322°N, 3.0446°E)
Time: 05:35:20
(UTC+00:00)

Daily predictions for brighter satellites

Satellite Brightness Start Highest point End
(mag) Time Altitude Azimuth Time Altitude Azimuth Time Altitude Azimuth
SJ 16-02 3.8 00:09:53 18° NE 00:09:53 18° NE 00:11:09 10° NE
Cosmos 2263 Rocket 4.5 00:14:58 13° E 00:14:58 13° E 00:16:26 10° ENE
SL-16 R/B 3.1 00:09:16 10° NNW 00:13:48 46° NNE 00:13:48 46° NNE
Cosmos 2297 Rocket 3.1 00:28:54 43° NNW 00:28:54 43° NNW 00:33:17 10° NNE
Cosmos 2344 4.4 00:24:26 10° NW 00:34:24 79° WSW 00:38:10 53° SSE
USA 229 DEB 4.1 00:36:45 51° E 00:36:45 51° E 00:42:10 10° NE
USA 229 4.1 00:36:53 50° E 00:36:53 50° E 00:42:16 10° NE
Cosmos 1092 Rocket 4.5 00:31:44 10° NNW 00:36:34 53° NW 00:36:34 53° NW
Cosmos 2219 4.4 00:41:47 33° NW 00:41:47 33° NW 00:46:17 10° N
Cosmos 2237 Rocket 4.0 00:39:02 10° NW 00:41:11 21° WNW 00:41:11 21° WNW
NOSS 3-1 (A) 4.3 00:48:36 38° ENE 00:48:36 38° ENE 00:52:51 10° NE
Meteor 1-24 Rocket 4.4 00:44:50 10° N 00:49:07 47° NE 00:49:07 47° NE
CZ-2D R/B 2.8 01:03:18 10° NNE 01:08:00 49° ENE 01:08:00 49° ENE
SL-16 R/B 2.8 01:09:26 60° E 01:10:02 63° ENE 01:16:13 10° N
Cosmos 1943 4.5 01:08:43 10° N 01:13:54 36° ENE 01:16:10 26° ESE
Cosmos 1655 Rocket 3.9 01:12:15 10° N 01:18:27 81° ENE 01:18:27 81° ENE
Cosmos 2227 Rocket 3.7 01:18:32 25° NW 01:18:41 25° NW 01:23:20 10° N
Cosmos 2292 Rocket 4.4 01:15:27 10° N 01:22:07 73° ENE 01:22:07 73° ENE
Meteor 2-5 Rocket 4.5 01:21:07 10° NNW 01:25:04 42° NW 01:25:04 42° NW
NPP 3.9 01:22:07 10° NNE 01:27:04 62° ENE 01:27:04 62° ENE
Cosmos 2279 Rocket 4.3 01:29:43 52° WNW 01:29:43 52° WNW 01:35:22 10° N
Atlas Centaur 2 4.4 01:38:02 15° SE 01:38:02 15° SE 01:39:53 10° ESE
AQUA 4.4 01:30:28 10° NNE 01:34:26 52° ENE 01:34:26 52° ENE
Exosat Rocket 4.3 01:36:53 64° SSW 01:38:14 86° ESE 01:44:31 10° NNE
Resurs 1-4 Rocket 2.2 01:36:49 10° N 01:41:36 71° NNW 01:41:36 71° NNW
NOSS 2-3 (E) 4.4 01:44:49 50° N 01:44:49 50° N 01:48:47 10° NNE
Cosmos 2227 4.1 01:44:00 86° NNW 01:44:00 86° NNW 01:49:44 10° NNE
SJ 16-02 3.4 01:46:52 19° NW 01:46:52 19° NW 01:49:05 10° NNW
Cosmos 2098 Rocket 3.9 01:40:15 10° N 01:46:05 81° W 01:46:32 76° SSW
NOSS 3-1 (C) 4.0 01:48:09 40° WNW 01:48:51 42° NW 01:54:52 10° NNE
Cosmos 2263 Rocket 2.0 01:56:40 76° WNW 01:56:43 76° WNW 02:02:19 10° NNE
Cosmos 2298 Rocket 4.2 01:57:57 63° SE 01:58:14 64° ESE 02:03:32 10° NNE
SL-16 R/B 4.2 01:54:12 10° NW 01:55:38 16° WNW 01:55:38 16° WNW
Cosmos 372 Rocket 3.9 02:04:37 81° WNW 02:04:38 81° WNW 02:09:55 10° NNE
Cosmos 1937 Rocket 4.4 02:07:18 37° WNW 02:07:18 37° WNW 02:12:12 10° N
COBE Rocket 3.8 02:08:32 72° NNW 02:08:32 72° NNW 02:12:45 10° NNW
NOSS 2-3 (D) 4.4 02:08:30 42° NW 02:08:30 42° NW 02:13:05 10° NNE
Cosmos 1455 Rocket 4.5 02:12:38 28° NW 02:12:38 28° NW 02:15:31 10° NNW
Cosmos 1809 Rocket 4.3 02:05:48 10° N 02:11:56 81° W 02:13:15 57° S
Cosmos 2285 Rocket 4.0 02:10:59 51° S 02:12:37 72° ESE 02:18:53 10° NNE
Cosmos 1726 3.3 02:14:19 37° N 02:14:19 37° N 02:16:40 10° N
ATLAS CENTAUR R/B 1.7 02:13:46 60° NE 02:13:46 60° NE 02:17:04 10° NE
ADEOS II 2.0 02:08:28 10° NNE 02:13:45 80° ESE 02:14:31 65° S
Cosmos 1626 Rocket 3.9 02:09:36 10° NNW 02:13:03 55° NNW 02:13:03 55° NNW
CZ-4B R/B 3.2 02:11:54 10° N 02:16:39 73° WNW 02:16:40 73° WNW
Cosmos 1844 Rocket 3.9 02:17:42 25° SSE 02:19:54 35° ESE 02:24:53 10° NE
Cosmos 2266 Rocket 4.4 02:16:49 10° NNW 02:22:41 42° W 02:22:57 42° W
GEOS 3 Rocket 4.3 02:21:56 10° NNE 02:27:05 46° NW 02:28:25 39° W
Meteor 2-10 4.2 02:27:12 54° WSW 02:27:58 59° WNW 02:33:37 10° N
Cosmos 2084 3.6 02:28:48 63° WNW 02:28:52 63° NW 02:33:17 10° NNE
Meteor 1-21 Rocket 4.1 02:24:57 10° NNW 02:30:27 70° W 02:31:40 53° SSW
CBERS-1 4.0 02:25:24 10° N 02:30:28 64° WNW 02:31:10 57° WSW
Meteor 2-21 4.4 02:24:29 10° NNW 02:30:31 66° W 02:32:12 47° SSW
Cosmos 468 4.5 02:25:18 10° NNW 02:30:36 84° ENE 02:33:35 27° SSE
ARIANE 5 R/B 2.8 02:28:55 10° NNE 02:34:09 65° ESE 02:36:11 36° S
Cosmos 1932 4.4 02:28:42 10° NW 02:35:09 70° WSW 02:41:25 10° SSE
Cosmos 1244 Rocket 4.4 02:29:48 10° N 02:36:10 86° W 02:39:39 29° S
Cosmos 1758 Rocket 3.7 02:32:25 10° N 02:36:45 70° E 02:38:14 39° SSE
NOSS 3-1 (A) 4.4 02:36:02 26° WNW 02:38:08 33° NW 02:43:54 10° NNE
Cosmos 1603 4.2 02:34:09 10° NW 02:39:05 39° W 02:39:05 39° W
Cosmos 2150 Rocket 4.2 02:42:28 47° WSW 02:43:30 56° WNW 02:48:40 10° NNE
MINOTAUR IV R/B 4.5 02:41:28 10° NNW 02:45:54 62° WSW 02:46:16 59° SW
Cosmos 494 Rocket 4.2 02:40:45 10° NNW 02:45:55 68° ENE 02:51:06 10° SSE
H-2A R/B 3.9 02:42:53 10° SE 02:46:27 30° ENE 02:50:02 10° N
CZ-2D R/B 3.6 02:44:08 10° NNW 02:48:20 23° WNW 02:49:19 22° WNW
S3M 4.3 02:45:36 19° S 02:50:18 67° E 02:56:39 10° NNE
Cosmos 1703 3.1 02:48:20 10° NNW 02:52:17 70° W 02:52:42 63° SW
SL-16 R/B 3.8 02:54:31 21° W 02:54:31 21° W 02:58:43 10° NW
Cosmos 1825 Rocket 3.4 02:50:58 10° N 02:55:19 87° E 02:57:30 29° S
Cosmos 1125 Rocket 3.5 02:54:00 42° SW 02:55:43 67° WNW 03:01:00 10° NNE
Cosmos 1943 3.8 02:52:53 10° NW 02:57:51 33° WSW 02:57:52 33° WSW
OAO 3 Rocket 4.2 02:58:35 29° S 02:58:35 29° S 03:02:23 10° SE
Cosmos 1953 3.7 02:59:36 24° WNW 02:59:36 24° WNW 03:02:39 10° NNW
USA 215 3.3 02:53:37 10° NE 03:00:12 79° SE 03:03:50 29° SW
IRS-1C 4.3 02:56:34 10° N 03:01:47 55° WNW 03:03:51 34° SW
Cosmos 1328 3.8 03:02:11 10° NNW 03:06:07 56° W 03:07:02 44° SW
Cosmos 1953 Rocket 3.7 03:02:19 10° N 03:06:49 77° E 03:11:08 11° SSE
CZ-2D R/B 3.2 03:07:20 10° N 03:11:19 74° WNW 03:12:51 36° SSW
OAO 2 Rocket 4.1 03:10:53 30° SSW 03:12:27 37° S 03:17:18 10° ESE
Resurs 1-4 Rocket 4.2 03:19:33 10° NW 03:21:02 11° WNW 03:22:30 10° WNW
Cosmos 1606 Rocket 3.8 03:19:25 30° SW 03:21:15 50° W 03:25:37 10° N
Hubble Space Telescope 3.0 03:22:46 12° S 03:22:46 12° S 03:24:08 10° SSE
Atlas Centaur 2 3.5 03:20:39 23° SW 03:23:23 31° S 03:29:52 10° ESE
NOSS 2-2 (E) 3.1 03:22:46 35° SW 03:24:07 69° NW 03:27:59 10° NNE
NOSS 2-2 (D) 3.0 03:23:30 33° SW 03:24:59 90° WNW 03:28:48 10° NE
IDEFIX/ARIANE 42P 2.7 03:25:20 10° N 03:30:28 59° WNW 03:34:08 19° SW
USA 267 4.1 03:25:05 10° ESE 03:31:22 52° NNE 03:37:40 10° NW
Meteor 2-15 Rocket 4.4 03:27:00 10° S 03:33:03 89° W 03:39:10 10° N
Cosmos 1726 Rocket 4.0 03:33:33 23° SW 03:35:58 44° WNW 03:40:15 10° N
MSX 3.8 03:30:38 10° N 03:36:25 78° WNW 03:42:02 11° SSW
PSLV R/B 4.1 03:32:46 10° NNE 03:37:06 59° E 03:41:22 10° S
Cosmos 2228 3.9 03:36:22 22° WSW 03:38:17 32° WNW 03:42:15 10° NNW
Cosmos 2315 Rocket 4.2 03:33:37 10° S 03:39:56 81° E 03:46:21 10° N
Cosmos 2263 Rocket 4.2 03:38:55 10° WNW 03:41:37 14° NW 03:44:21 10° NNW
Cosmos 1844 3.8 03:37:25 18° SW 03:41:46 64° WNW 03:47:30 10° NNE
Cosmos 1455 3.9 03:44:45 10° SSE 03:48:15 34° E 03:51:47 10° NNE
Cosmos 1356 Rocket 4.3 03:46:41 19° WSW 03:48:52 30° WNW 03:52:32 10° N
CZ-2C R/B 3.2 03:46:22 10° N 03:49:56 40° WNW 03:52:32 16° SW
deb Chang Zheng 4 4.4 03:47:20 10° NNE 03:51:36 51° E 03:55:50 10° S
Cosmos 1300 3.4 03:49:36 18° SW 03:51:59 36° WNW 03:55:32 10° N
ATLAS CENTAUR R/B 3.5 03:50:23 10° WNW 03:52:25 13° NW 03:54:25 10° N
ADEOS II 4.0 03:49:58 10° NNW 03:52:45 15° WNW 03:55:27 10° W
ERS-2 2.2 03:51:21 10° S 03:54:56 55° WSW 03:58:32 10° NNW
CZ-4C R/B 3.6 03:54:53 10° SSW 03:57:53 33° W 04:00:59 10° NNW
Cosmos 1400 Rocket 4.1 03:55:45 10° SSE 03:59:23 40° E 04:03:01 10° NNE
Cosmos 1269 Rocket 4.3 03:56:29 10° NNW 04:01:30 44° WSW 04:06:29 10° S
Cosmos 2278 Rocket 3.1 03:57:19 10° S 04:02:44 49° ESE 04:08:11 10° NE
Cosmos 1844 Rocket 3.5 03:59:23 13° WSW 04:03:44 35° WNW 04:08:49 10° N
SAR-Lupe-4 4.1 04:01:23 10° SSE 04:04:55 64° ENE 04:08:29 10° N
Cosmos 1076 Rocket 4.0 04:03:24 10° N 04:07:45 66° E 04:12:04 10° SSE
Cosmos 1812 Rocket 3.8 04:03:57 10° S 04:08:15 72° E 04:12:35 10° NNE
NOSS 2-2 (C) 4.2 04:05:43 12° WSW 04:08:32 31° NW 04:12:03 10° NNE
Cosmos 2251 Rocket 4.3 04:03:30 10° NNW 04:08:50 61° ENE 04:14:08 10° SSE
Lacrosse 5 rocket 2.3 04:04:52 10° SSW 04:09:14 50° SE 04:13:42 10° NE
Cosmos 1833 Rocket 4.1 04:05:13 10° NNW 04:10:38 45° ENE 04:16:01 10° SE
NOSS 3-2 (A) 4.4 04:04:47 10° NNW 04:12:25 77° NE 04:20:58 10° SE
ARIANE 5 R/B 4.2 04:09:18 10° NNW 04:12:42 18° WNW 04:16:05 10° WSW
USA 281 3.4 04:06:46 10° NNE 04:13:21 78° ESE 04:19:55 10° SSW
SeaSat 1 2.5 04:11:10 10° NNE 04:16:08 87° WNW 04:21:05 10° SSW
Meteor 2-10 Rocket 3.7 04:14:16 10° S 04:19:30 87° E 04:25:00 10° N
SAR-Lupe-1 4.0 04:16:16 10° SSE 04:19:51 86° WSW 04:23:27 10° NNW
H-2A R/B 3.2 04:19:14 10° SSW 04:22:26 22° W 04:25:39 10° NW
Cosmos 2058 Rocket 4.4 04:19:16 10° SW 04:22:49 23° WNW 04:26:22 10° NNW
Cosmos 1867 3.6 04:19:50 10° NW 04:25:19 80° WSW 04:30:44 10° SSE
NOSS 3-4 (A) 4.3 04:20:56 10° S 04:26:33 47° ESE 04:32:26 10° NE
NOSS 3-4 (C) 4.4 04:21:06 10° S 04:26:41 47° ESE 04:32:33 10° NE
Cosmos 2184 Rocket 4.2 04:26:48 10° N 04:33:07 84° E 04:39:19 10° S
Cosmos 2074 Rocket 4.2 04:27:18 10° N 04:33:38 87° E 04:39:56 10° S
